�N����,����,�~����,�C��,���x,�C��,����,���ϕ���,�ő�u�ԕ���,�ő厞����,���˗�,�I�_���x,�n�����x,�ő啗���N��,DTYPE
"23/05/03","00:10",0.0,10.9,69.6,1020.6,338.5,2.6,4.3,346.1,0.00,5.6,15.4,"00:00:48",1
"23/05/03","00:20",0.0,10.7,70.4,1020.4,330.7,2.7,3.6,319.1,0.00,5.6,15.0,"00:11:30",1
"23/05/03","00:30",0.0,10.6,71.1,1020.6,327.2,2.2,3.3,336.9,0.00,5.6,15.2,"00:21:12",1
"23/05/03","00:40",0.0,10.5,71.7,1020.6,328.6,2.5,3.4,327.6,0.00,5.7,15.2,"00:36:32",1
"23/05/03","00:50",0.0,10.5,72.1,1020.6,332.1,2.7,3.5,346.2,0.00,5.7,15.0,"00:46:40",1
"23/05/03","01:00",0.0,10.6,72.2,1020.8,328.6,3.5,4.9,316.9,0.00,5.8,15.0,"00:56:24",1
"23/05/03","01:10",0.0,10.4,72.4,1020.6,309.0,2.5,3.9,321.7,0.00,5.7,15.1,"01:01:12",1
"23/05/03","01:20",0.0,10.2,72.8,1020.1,294.2,2.1,2.8,265.9,0.00,5.6,14.9,"01:15:28",1
"23/05/03","01:30",0.0,10.0,73.7,1020.1,318.6,2.3,3.1,305.1,0.00,5.6,15.1,"01:20:56",1
"23/05/03","01:40",0.0,9.7,74.9,1020.1,326.4,2.2,2.7,320.5,0.00,5.5,15.0,"01:37:12",1
"23/05/03","01:50",0.0,9.6,76.0,1020.1,307.4,2.7,3.5,323.6,0.00,5.6,14.9,"01:45:20",1
"23/05/03","02:00",0.0,9.6,76.4,1019.9,300.3,2.5,3.6,324.9,0.00,5.7,14.7,"01:50:08",1
"23/05/03","02:10",0.0,9.5,77.0,1019.7,305.0,2.5,2.9,315.8,0.00,5.7,14.8,"02:00:56",1
"23/05/03","02:20",0.0,9.4,77.4,1019.4,286.1,2.0,2.6,290.3,0.00,5.7,14.7,"02:15:28",1
"23/05/03","02:30",0.0,9.6,77.7,1019.9,299.9,2.6,3.6,307.4,0.00,5.9,14.8,"02:27:20",1
"23/05/03","02:40",0.0,9.4,78.1,1019.7,328.4,2.2,3.6,320.5,0.00,5.8,14.4,"02:30:08",1
"23/05/03","02:50",0.0,9.0,78.9,1019.7,317.1,1.8,2.5,321.7,0.00,5.6,14.8,"02:47:28",1
"23/05/03","03:00",0.0,8.9,79.9,1020.1,309.0,2.0,2.4,321.9,0.00,5.7,14.5,"02:55:04",1
"23/05/03","03:10",0.0,8.7,80.8,1019.7,304.6,1.1,2.2,321.3,0.00,5.6,14.7,"03:01:04",1
"23/05/03","03:20",0.0,8.4,81.8,1019.7,312.2,2.3,3.3,315.2,0.00,5.5,14.6,"03:14:32",1
"23/05/03","03:30",0.0,8.2,83.3,1019.9,301.8,2.3,2.7,311.4,0.00,5.6,14.6,"03:27:36",1
"23/05/03","03:40",0.0,8.5,84.0,1019.9,323.2,2.2,3.4,321.2,0.00,6.0,14.5,"03:32:08",1
"23/05/03","03:50",0.0,8.3,84.5,1019.9,316.7,2.5,3.4,322.0,0.00,5.9,14.4,"03:46:00",1
"23/05/03","04:00",0.0,8.2,85.2,1019.7,303.6,2.3,3.5,315.7,0.00,5.9,14.5,"03:57:20",1
"23/05/03","04:10",0.0,8.4,85.4,1019.9,315.4,2.5,3.5,320.1,0.00,6.1,14.5,"04:02:24",1
"23/05/03","04:20",0.0,8.3,85.4,1019.9,305.0,2.2,2.7,304.4,0.00,6.0,14.2,"04:19:36",1
"23/05/03","04:30",0.0,8.4,85.5,1019.9,302.6,2.5,3.5,307.7,0.00,6.2,14.1,"04:28:40",1
"23/05/03","04:40",0.0,8.5,85.4,1020.4,313.7,2.3,3.3,316.4,0.00,6.2,14.3,"04:30:08",1
"23/05/03","04:50",0.0,8.2,85.4,1019.9,304.0,1.8,2.2,315.9,0.00,5.9,14.3,"04:40:16",1
"23/05/03","05:00",0.0,8.1,85.6,1020.1,315.9,2.5,3.4,304.2,0.00,5.9,14.2,"04:54:32",1
"23/05/03","05:10",0.0,8.1,85.8,1020.4,287.2,2.1,2.8,273.0,0.00,5.9,14.0,"05:04:00",1
"23/05/03","05:20",0.0,7.9,86.1,1020.4,298.5,2.3,3.5,318.6,0.00,5.8,14.2,"05:18:08",1
"23/05/03","05:30",0.0,7.5,86.7,1020.4,313.3,3.0,3.4,321.0,0.00,5.5,14.1,"05:20:32",1
"23/05/03","05:40",0.0,7.6,87.4,1020.4,300.7,2.3,2.9,308.1,0.00,5.7,14.2,"05:33:12",1
"23/05/03","05:50",0.0,7.8,87.8,1020.4,294.8,2.2,2.8,282.4,0.00,5.9,13.9,"05:44:08",1
"23/05/03","06:00",0.0,7.7,88.1,1020.6,311.2,2.5,3.1,322.5,0.00,5.9,13.7,"05:56:08",1
"23/05/03","06:10",0.0,7.5,88.6,1020.4,300.9,2.6,3.3,314.2,0.00,5.8,13.8,"06:03:28",1
"23/05/03","06:20",0.0,7.6,89.0,1020.8,320.0,2.2,2.9,324.9,0.00,5.9,13.7,"06:11:20",1
"23/05/03","06:30",0.0,7.6,89.2,1021.1,304.7,2.1,3.3,324.4,0.00,6.0,13.6,"06:28:24",1
"23/05/03","06:40",0.0,7.7,89.7,1021.1,322.5,2.5,3.3,324.0,0.01,6.2,13.7,"06:32:32",1
"23/05/03","06:50",0.0,8.6,90.1,1021.3,309.8,1.3,2.2,310.0,0.02,7.1,13.5,"06:40:32",1
"23/05/03","07:00",0.0,9.6,90.0,1021.3,310.8,1.1,1.8,307.2,0.03,8.1,13.7,"06:57:06",1
"23/05/03","07:10",0.0,10.5,89.7,1021.5,322.6,1.1,1.6,317.5,0.05,8.9,13.6,"07:01:12",1
"23/05/03","07:20",0.0,11.0,88.4,1021.5,206.9,0.3,1.0,302.0,0.07,9.2,13.7,"07:10:16",1
"23/05/03","07:30",0.0,11.8,86.5,1022.0,308.0,0.6,1.1,316.2,0.09,9.7,13.6,"07:23:20",1
"23/05/03","07:40",0.0,12.7,83.5,1022.7,330.0,1.2,1.9,331.4,0.11,10.0,13.5,"07:36:20",1
"23/05/03","07:50",0.0,13.2,79.7,1022.7,308.1,1.0,1.6,326.0,0.14,9.8,13.6,"07:40:24",1
"23/05/03","08:00",0.0,14.0,76.0,1022.7,323.1,0.7,1.2,348.6,0.16,9.9,13.6,"07:51:28",1
"23/05/03","08:10",0.0,14.7,71.5,1023.2,257.7,0.3,0.9,304.7,0.19,9.6,13.5,"08:00:40",1
"23/05/03","08:20",0.0,15.1,68.1,1022.7,240.8,0.6,1.2,131.2,0.22,9.3,13.6,"08:19:20",1
"23/05/03","08:30",0.0,15.5,67.3,1022.5,283.1,0.5,0.9,282.2,0.24,9.5,13.6,"08:20:40",1
"23/05/03","08:40",0.0,16.1,65.0,1022.7,246.7,0.3,1.3,116.4,0.27,9.6,13.5,"08:38:08",1
"23/05/03","08:50",0.0,16.7,62.6,1022.3,223.1,0.6,1.6,157.6,0.30,9.6,13.5,"08:45:20",1
"23/05/03","09:00",0.0,17.2,61.0,1022.3,149.5,0.7,1.7,136.3,0.32,9.7,13.7,"08:52:16",1
"23/05/03","09:10",0.0,17.6,60.1,1022.0,129.0,0.6,1.8,110.6,0.34,9.8,13.6,"09:08:48",1
"23/05/03","09:20",0.0,17.9,58.2,1022.0,129.1,0.8,1.9,123.8,0.37,9.6,13.8,"09:12:48",1
"23/05/03","09:30",0.0,18.6,57.6,1021.8,125.7,0.8,2.1,100.0,0.39,10.1,13.7,"09:20:16",1
"23/05/03","09:40",0.0,18.5,54.4,1021.8,159.6,1.1,2.7,119.2,0.41,9.2,13.9,"09:34:08",1
"23/05/03","09:50",0.0,18.8,51.2,1021.8,151.1,1.3,2.6,111.8,0.43,8.6,13.9,"09:46:32",1
"23/05/03","10:00",0.0,19.5,50.1,1021.8,99.9,0.8,2.0,51.7,0.45,8.9,13.9,"09:58:48",1
"23/05/03","10:10",0.0,19.6,48.2,1021.5,152.1,1.2,2.8,136.8,0.47,8.4,14.0,"10:06:00",1
"23/05/03","10:20",0.0,20.2,46.8,1021.3,252.3,0.8,2.7,120.6,0.49,8.5,14.1,"10:14:16",1
"23/05/03","10:30",0.0,20.6,48.2,1021.1,115.3,1.0,2.8,114.5,0.51,9.3,14.2,"10:21:20",1
"23/05/03","10:40",0.0,20.8,47.0,1020.6,11.3,1.0,2.7,121.2,0.51,9.1,14.2,"10:34:32",1
"23/05/03","10:50",0.0,21.0,47.2,1020.8,84.0,1.2,3.4,130.2,0.53,9.4,14.3,"10:46:32",1
"23/05/03","11:00",0.0,20.9,48.7,1020.6,186.2,1.7,3.7,130.8,0.54,9.7,14.4,"10:50:24",1
"23/05/03","11:10",0.0,21.5,52.4,1020.6,138.8,1.6,3.1,142.5,0.56,11.4,14.4,"11:08:16",1
"23/05/03","11:20",0.0,21.8,49.6,1020.4,153.0,1.5,3.4,115.8,0.57,10.8,14.5,"11:15:44",1
"23/05/03","11:30",0.0,22.0,49.8,1020.1,142.1,2.8,5.5,121.4,0.58,11.1,14.7,"11:28:48",1
"23/05/03","11:40",0.0,22.1,48.4,1020.1,150.3,2.6,5.1,145.0,0.59,10.8,14.8,"11:32:40",1
"23/05/03","11:50",0.0,22.9,43.3,1019.9,154.9,1.7,4.3,184.8,0.61,9.8,14.8,"11:49:44",1
"23/05/03","12:00",0.0,22.7,40.8,1019.9,219.7,2.7,4.5,139.5,0.51,8.8,14.8,"11:50:16",1
"23/05/03","12:10",0.0,22.9,39.6,1019.7,230.0,3.6,5.7,233.0,0.61,8.5,15.0,"12:05:04",1
"23/05/03","12:20",0.0,22.9,37.0,1019.4,243.5,3.2,6.6,233.6,0.60,7.5,15.1,"12:18:56",1
"23/05/03","12:30",0.0,23.1,39.7,1019.2,239.8,3.1,7.4,260.5,0.53,8.7,15.2,"12:22:24",1
"23/05/03","12:40",0.0,23.5,39.2,1019.0,229.4,2.6,7.0,200.1,0.57,8.9,15.2,"12:30:02",1
"23/05/03","12:50",0.0,23.5,38.1,1018.7,204.1,2.8,7.8,228.9,0.56,8.5,15.4,"12:40:08",1
"23/05/03","13:00",0.0,23.0,38.9,1018.7,234.0,2.8,5.8,233.9,0.48,8.3,15.5,"12:58:40",1
"23/05/03","13:10",0.0,23.9,41.4,1018.5,225.3,2.2,4.3,211.4,0.58,10.0,15.4,"13:04:56",1
"23/05/03","13:20",0.0,24.4,39.5,1018.5,228.4,2.0,5.7,222.2,0.57,9.8,15.8,"13:14:40",1
"23/05/03","13:30",0.0,24.3,39.8,1018.0,233.8,1.8,4.9,225.0,0.56,9.8,15.8,"13:21:44",1
"23/05/03","13:40",0.0,24.3,37.5,1018.0,258.4,2.5,6.8,245.6,0.57,8.9,16.0,"13:38:00",1
"23/05/03","13:50",0.0,24.1,37.7,1018.0,338.7,2.6,5.8,346.2,0.56,8.8,15.8,"13:49:12",1
"23/05/03","14:00",0.0,24.2,37.8,1018.0,298.3,2.5,5.2,349.7,0.46,9.0,16.0,"13:50:56",1
"23/05/03","14:10",0.0,23.7,38.4,1017.5,278.4,1.8,3.7,318.8,0.36,8.7,16.2,"14:03:04",1
"23/05/03","14:20",0.0,24.2,38.5,1017.3,255.3,2.7,5.5,245.0,0.49,9.2,16.1,"14:15:04",1
"23/05/03","14:30",0.0,24.0,39.6,1017.3,247.7,2.3,4.5,243.8,0.35,9.5,16.4,"14:28:32",1
"23/05/03","14:40",0.0,23.8,39.2,1017.3,278.9,2.5,4.8,1.7,0.34,9.1,16.3,"14:38:40",1
"23/05/03","14:50",0.0,24.0,42.6,1017.1,292.5,2.2,3.9,328.9,0.35,10.6,16.3,"14:44:40",1
"23/05/03","15:00",0.0,24.1,38.4,1017.1,312.9,2.2,4.1,357.7,0.38,9.1,16.4,"14:53:12",1
"23/05/03","15:10",0.0,24.5,39.6,1017.1,278.8,2.0,5.1,328.3,0.41,9.9,16.8,"15:04:24",1
"23/05/03","15:20",0.0,24.7,38.2,1016.8,277.4,2.2,4.8,242.3,0.47,9.6,16.7,"15:19:04",1
"23/05/03","15:30",0.0,24.9,40.1,1016.6,223.3,2.2,5.5,301.6,0.43,10.5,16.7,"15:29:52",1
"23/05/03","15:40",0.0,24.6,39.4,1016.1,312.0,2.1,5.5,337.5,0.34,9.9,16.8,"15:35:12",1
"23/05/03","15:50",0.0,24.4,34.1,1016.4,277.1,2.2,5.1,341.8,0.34,7.6,16.7,"15:48:48",1
"23/05/03","16:00",0.0,24.8,37.7,1016.6,286.3,2.0,4.5,321.4,0.34,9.5,16.7,"15:50:56",1
"23/05/03","16:10",0.0,24.9,34.8,1016.1,321.8,2.3,4.9,338.1,0.34,8.4,17.0,"16:08:16",1
"23/05/03","16:20",0.0,24.4,34.0,1016.1,326.9,2.8,5.4,347.3,0.27,7.6,17.0,"16:15:12",1
"23/05/03","16:30",0.0,24.8,32.7,1016.1,248.4,1.5,3.7,213.4,0.26,7.4,17.0,"16:28:08",1
"23/05/03","16:40",0.0,24.7,32.1,1016.1,292.0,1.8,3.9,328.8,0.25,7.0,17.1,"16:37:36",1
"23/05/03","16:50",0.0,24.5,33.6,1016.1,316.7,2.5,4.2,336.2,0.22,7.5,17.2,"16:45:36",1
"23/05/03","17:00",0.0,24.5,34.1,1016.4,323.4,2.0,4.0,349.2,0.17,7.7,17.0,"16:54:16",1
"23/05/03","17:10",0.0,24.0,34.7,1016.1,277.5,1.7,4.1,321.1,0.10,7.5,17.4,"17:08:16",1
"23/05/03","17:20",0.0,24.2,37.1,1015.9,284.6,2.2,4.5,248.5,0.18,8.7,17.2,"17:17:04",1
"23/05/03","17:30",0.0,24.2,38.7,1015.6,267.8,1.7,3.4,246.0,0.11,9.3,17.3,"17:22:08",1
"23/05/03","17:40",0.0,24.2,39.3,1015.9,237.2,1.5,3.7,239.1,0.12,9.5,17.3,"17:32:48",1
"23/05/03","17:50",0.0,23.8,37.6,1016.4,231.0,2.0,4.4,243.8,0.09,8.5,17.1,"17:46:08",1
"23/05/03","18:00",0.0,23.8,38.8,1016.4,232.3,2.1,3.7,238.6,0.10,9.0,17.3,"17:56:40",1
"23/05/03","18:10",0.0,23.7,40.0,1015.9,211.2,2.0,3.5,202.4,0.09,9.4,17.4,"18:06:48",1
"23/05/03","18:20",0.0,23.6,41.0,1016.1,273.6,1.5,4.0,252.9,0.05,9.6,17.1,"18:14:00",1
"23/05/03","18:30",0.0,23.2,43.9,1016.1,245.1,2.0,3.5,234.8,0.03,10.3,17.4,"18:21:44",1
"23/05/03","18:40",0.0,22.5,45.4,1016.1,245.2,2.1,4.2,240.8,0.01,10.2,17.4,"18:36:00",1
"23/05/03","18:50",0.0,22.1,45.1,1016.4,252.7,2.0,3.4,242.0,0.01,9.7,17.4,"18:41:52",1
"23/05/03","19:00",0.0,21.7,44.2,1016.6,248.7,2.3,4.5,233.0,0.00,9.0,17.2,"18:50:08",1
"23/05/03","19:10",0.0,21.3,45.3,1016.8,268.2,1.6,2.9,258.0,0.00,9.0,17.4,"19:09:12",1
"23/05/03","19:20",0.0,21.0,45.1,1016.6,279.1,1.6,2.9,306.3,0.00,8.7,17.6,"19:17:44",1
"23/05/03","19:30",0.0,20.3,52.7,1016.8,332.0,1.7,2.9,345.3,0.00,10.4,17.2,"19:24:40",1
"23/05/03","19:40",0.0,19.3,54.1,1017.3,313.7,1.5,2.2,339.0,0.00,9.8,17.2,"19:37:44",1
"23/05/03","19:50",0.0,18.8,55.0,1017.1,329.7,1.7,2.2,342.5,0.00,9.6,17.2,"19:40:08",1
"23/05/03","20:00",0.0,18.4,57.9,1017.3,344.7,1.2,2.2,343.1,0.00,10.0,17.2,"19:56:56",1
"23/05/03","20:10",0.0,17.6,62.0,1017.5,337.6,1.6,2.0,351.3,0.00,10.3,17.1,"20:01:36",1
"23/05/03","20:20",0.0,17.3,63.2,1017.5,337.3,1.6,2.5,344.6,0.00,10.3,17.2,"20:15:04",1
"23/05/03","20:30",0.0,17.4,61.9,1017.5,343.3,1.6,2.2,343.6,0.00,10.1,17.0,"20:21:28",1
"23/05/03","20:40",0.0,17.4,62.5,1018.2,341.2,2.1,2.7,7.1,0.00,10.2,17.2,"20:37:04",1
"23/05/03","20:50",0.0,17.5,62.2,1018.2,331.5,2.5,3.9,308.5,0.00,10.2,16.9,"20:47:52",1
"23/05/03","21:00",0.0,17.7,62.2,1018.2,340.5,2.2,4.2,332.0,0.00,10.4,16.9,"20:51:20",1
"23/05/03","21:10",0.0,17.6,62.8,1018.2,335.2,2.0,3.2,346.1,0.00,10.5,16.9,"21:01:04",1
"23/05/03","21:20",0.0,17.6,63.9,1018.2,333.4,1.8,2.6,333.7,0.00,10.7,16.9,"21:18:32",1
"23/05/03","21:30",0.0,17.7,64.2,1019.0,314.1,1.6,2.7,343.3,0.00,10.9,16.9,"21:20:56",1
"23/05/03","21:40",0.0,17.6,64.6,1019.0,310.1,1.0,1.8,313.6,0.00,10.9,16.8,"21:30:16",1
"23/05/03","21:50",0.0,17.5,66.4,1018.7,334.0,1.2,3.1,341.8,0.00,11.2,16.7,"21:49:52",1
"23/05/03","22:00",0.0,17.1,68.1,1019.0,319.9,1.5,2.5,286.8,0.00,11.2,16.7,"21:51:12",1
"23/05/03","22:10",0.0,17.3,68.5,1018.5,345.2,1.2,4.0,343.6,0.00,11.5,16.7,"22:01:52",1
"23/05/03","22:20",0.0,17.1,68.9,1018.7,298.6,0.7,1.6,256.5,0.00,11.4,16.5,"22:14:32",1
"23/05/03","22:30",0.0,16.4,70.2,1018.5,338.0,2.0,3.9,343.2,0.00,11.0,16.7,"22:29:04",1
"23/05/03","22:40",0.0,16.2,71.1,1018.5,349.0,1.5,2.4,356.9,0.00,11.0,16.4,"22:30:30",1
"23/05/03","22:50",0.0,16.0,72.6,1018.7,347.1,1.2,2.1,316.5,0.00,11.1,16.4,"22:40:58",1
"23/05/03","23:00",0.0,16.3,73.4,1018.7,340.2,1.8,3.2,338.1,0.00,11.6,16.5,"22:51:16",1
"23/05/03","23:10",0.0,16.3,73.7,1018.7,330.1,1.5,3.2,309.4,0.00,11.6,16.7,"23:00:10",1
"23/05/03","23:20",0.0,16.9,73.1,1019.0,311.6,2.5,5.0,316.1,0.00,12.1,16.5,"23:18:58",1
"23/05/03","23:30",0.0,17.7,70.6,1018.7,316.1,2.5,3.6,318.3,0.00,12.3,16.4,"23:20:56",1
"23/05/03","23:40",0.0,17.7,69.7,1018.5,322.2,2.6,4.3,337.3,0.00,12.1,16.4,"23:35:52",1
"23/05/03","23:50",0.0,17.5,69.9,1018.7,324.4,2.7,4.5,341.4,0.00,12.0,16.2,"23:42:16",1
"23/05/03","24:00",0.0,17.0,70.6,1018.7,300.3,1.3,2.2,322.0,0.00,11.7,16.5,"23:52:24",1
